Time,TemperatureF,DewpointF,PressureIn,WindDirection,WindDirectionDegrees,WindSpeedMPH,WindSpeedGustMPH,Humidity,HourlyPrecipIn,Conditions,Clouds,dailyrainin,SoftwareType,DateUTC
2013-05-31 00:01:00,71.9,69.4,30.22,SSE,163,3.0,6.0,92,0.00,,---,0.00,VWS V14.00,2013-05-31 04:01:00,
2013-05-31 00:06:00,71.9,69.4,30.22,SSE,155,3.0,6.0,92,0.00,,---,0.00,VWS V14.00,2013-05-31 04:06:00,
2013-05-31 00:11:00,71.9,69.4,30.22,SSE,152,3.0,6.0,92,0.00,,---,0.00,VWS V14.00,2013-05-31 04:11:00,
2013-05-31 00:16:00,71.9,69.8,30.22,SE,143,4.0,6.0,93,0.00,,---,0.00,VWS V14.00,2013-05-31 04:16:00,
2013-05-31 00:21:00,71.8,69.7,30.22,SE,138,3.0,6.0,93,0.00,,---,0.00,VWS V14.00,2013-05-31 04:21:00,
2013-05-31 00:26:00,71.6,69.5,30.22,SE,144,4.0,6.0,93,0.00,,---,0.00,VWS V14.00,2013-05-31 04:26:00,
2013-05-31 00:31:00,71.6,69.5,30.22,SE,135,5.0,6.0,93,0.00,,---,0.00,VWS V14.00,2013-05-31 04:31:00,
2013-05-31 00:36:00,71.6,69.5,30.22,SE,145,5.0,6.0,93,0.00,,---,0.00,VWS V14.00,2013-05-31 04:36:00,
2013-05-31 00:41:00,71.5,69.7,30.22,SSE,151,5.0,6.0,94,0.00,,---,0.00,VWS V14.00,2013-05-31 04:41:00,
2013-05-31 00:46:00,71.5,69.7,30.22,SSE,148,4.0,6.0,94,0.00,,---,0.00,VWS V14.00,2013-05-31 04:46:00,
2013-05-31 00:51:00,71.4,69.6,30.22,SE,145,2.0,6.0,94,0.00,,---,0.00,VWS V14.00,2013-05-31 04:51:00,
2013-05-31 00:56:00,71.3,69.5,30.21,SSE,149,3.0,6.0,94,0.00,,---,0.00,VWS V14.00,2013-05-31 04:56:00,
2013-05-31 01:01:00,71.3,69.5,30.21,SSE,148,3.0,4.0,94,0.00,,---,0.00,VWS V14.00,2013-05-31 05:01:00,
2013-05-31 01:06:00,71.1,69.3,30.21,SSE,148,0.0,4.0,94,0.00,,---,0.00,VWS V14.00,2013-05-31 05:06:00,
2013-05-31 01:11:00,71.0,69.2,30.21,SSE,150,0.0,4.0,94,0.00,,---,0.00,VWS V14.00,2013-05-31 05:11:00,
2013-05-31 01:16:00,71.1,69.6,30.21,SSE,152,0.0,4.0,95,0.00,,---,0.00,VWS V14.00,2013-05-31 05:16:00,
2013-05-31 01:21:00,71.1,69.6,30.21,SSE,160,0.0,4.0,95,0.00,,---,0.00,VWS V14.00,2013-05-31 05:21:00,
2013-05-31 01:26:00,71.1,69.6,30.22,SSE,160,0.0,4.0,95,0.00,,---,0.00,VWS V14.00,2013-05-31 05:26:00,
2013-05-31 01:31:00,71.1,69.6,30.22,SSE,160,1.0,1.0,95,0.00,,---,0.00,VWS V14.00,2013-05-31 05:31:00,
2013-05-31 01:36:00,71.0,69.5,30.22,SSE,160,0.0,1.0,95,0.00,,---,0.00,VWS V14.00,2013-05-31 05:36:00,
2013-05-31 01:41:00,70.8,69.0,30.21,SSE,160,0.0,1.0,94,0.00,,---,0.00,VWS V14.00,2013-05-31 05:41:00,
2013-05-31 01:46:00,70.6,69.1,30.21,SSE,160,0.0,1.0,95,0.00,,---,0.00,VWS V14.00,2013-05-31 05:46:00,
2013-05-31 01:51:00,70.6,69.1,30.21,SSE,160,0.0,1.0,95,0.00,,---,0.00,VWS V14.00,2013-05-31 05:51:00,
2013-05-31 01:56:00,70.6,69.1,30.21,SSE,160,0.0,1.0,95,0.00,,---,0.00,VWS V14.00,2013-05-31 05:56:00,
2013-05-31 02:01:00,70.6,69.1,30.21,SSE,160,0.0,0.0,95,0.00,,---,0.00,VWS V14.00,2013-05-31 06:01:00,
2013-05-31 02:06:00,70.6,69.1,30.21,SSE,160,0.0,0.0,95,0.00,,---,0.00,VWS V14.00,2013-05-31 06:06:00,
2013-05-31 02:11:00,70.6,69.1,30.21,SSE,160,0.0,0.0,95,0.00,,---,0.00,VWS V14.00,2013-05-31 06:11:00,
2013-05-31 02:16:00,70.2,68.4,30.21,SSE,160,0.0,0.0,94,0.00,,---,0.00,VWS V14.00,2013-05-31 06:16:00,
2013-05-31 02:21:00,69.8,68.0,30.21,SSE,160,0.0,0.0,94,0.00,,---,0.00,VWS V14.00,2013-05-31 06:21:00,
2013-05-31 02:26:00,69.5,67.7,30.21,SSE,160,0.0,0.0,94,0.00,,---,0.00,VWS V14.00,2013-05-31 06:26:00,
2013-05-31 02:31:00,69.2,67.4,30.21,SSE,160,0.0,0.0,94,0.00,,---,0.00,VWS V14.00,2013-05-31 06:31:00,
2013-05-31 02:36:00,69.0,67.5,30.21,SSE,160,0.0,0.0,95,0.00,,---,0.00,VWS V14.00,2013-05-31 06:36:00,
2013-05-31 02:41:00,68.9,67.4,30.21,SSE,160,0.0,0.0,95,0.00,,---,0.00,VWS V14.00,2013-05-31 06:41:00,
2013-05-31 02:46:00,68.7,66.9,30.20,SSE,160,0.0,0.0,94,0.00,,---,0.00,VWS V14.00,2013-05-31 06:46:00,
2013-05-31 02:51:00,68.3,66.5,30.20,SSE,160,0.0,0.0,94,0.00,,---,0.00,VWS V14.00,2013-05-31 06:51:00,
2013-05-31 02:56:00,67.9,66.1,30.20,SSE,160,0.0,0.0,94,0.00,,---,0.00,VWS V14.00,2013-05-31 06:56:00,
2013-05-31 03:01:00,67.6,65.8,30.21,SSE,160,0.0,0.0,94,0.00,,---,0.00,VWS V14.00,2013-05-31 07:01:00,
2013-05-31 03:06:00,67.4,65.6,30.21,SSE,160,0.0,0.0,94,0.00,,---,0.00,VWS V14.00,2013-05-31 07:06:00,
2013-05-31 03:11:00,67.2,65.4,30.21,SSE,160,0.0,0.0,94,0.00,,---,0.00,VWS V14.00,2013-05-31 07:11:00,
2013-05-31 03:16:00,66.9,64.8,30.21,SSE,160,0.0,0.0,93,0.00,,---,0.00,VWS V14.00,2013-05-31 07:16:00,
2013-05-31 03:21:00,66.5,64.7,30.21,SSE,160,0.0,0.0,94,0.00,,---,0.00,VWS V14.00,2013-05-31 07:21:00,
2013-05-31 03:26:00,66.4,64.6,30.22,SSE,160,0.0,0.0,94,0.00,,---,0.00,VWS V14.00,2013-05-31 07:26:00,
2013-05-31 03:31:00,66.4,64.6,30.22,SSE,160,0.0,0.0,94,0.00,,---,0.00,VWS V14.00,2013-05-31 07:31:00,
2013-05-31 03:36:00,66.3,64.5,30.22,SSE,160,0.0,0.0,94,0.00,,---,0.00,VWS V14.00,2013-05-31 07:36:00,
2013-05-31 03:41:00,66.2,64.7,30.22,SSE,160,0.0,0.0,95,0.00,,---,0.00,VWS V14.00,2013-05-31 07:41:00,
2013-05-31 03:46:00,66.2,64.7,30.22,SSE,160,0.0,0.0,95,0.00,,---,0.00,VWS V14.00,2013-05-31 07:46:00,
2013-05-31 03:51:00,66.1,64.6,30.22,SSE,160,0.0,0.0,95,0.00,,---,0.00,VWS V14.00,2013-05-31 07:51:00,
2013-05-31 03:56:00,66.0,64.2,30.22,SSE,160,0.0,0.0,94,0.00,,---,0.00,VWS V14.00,2013-05-31 07:56:00,
2013-05-31 04:01:00,65.9,64.1,30.22,SSE,160,0.0,0.0,94,0.00,,---,0.00,VWS V14.00,2013-05-31 08:01:00,
2013-05-31 04:06:00,65.6,63.8,30.22,SSE,160,0.0,0.0,94,0.00,,---,0.00,VWS V14.00,2013-05-31 08:06:00,
2013-05-31 04:11:00,65.5,63.7,30.22,SSE,160,0.0,0.0,94,0.00,,---,0.00,VWS V14.00,2013-05-31 08:11:00,
2013-05-31 04:16:00,65.3,63.5,30.22,SSE,160,0.0,0.0,94,0.00,,---,0.00,VWS V14.00,2013-05-31 08:16:00,
2013-05-31 04:21:00,65.2,63.4,30.22,SSE,160,0.0,0.0,94,0.00,,---,0.00,VWS V14.00,2013-05-31 08:21:00,
2013-05-31 04:26:00,65.1,63.3,30.23,SSE,160,0.0,0.0,94,0.00,,---,0.00,VWS V14.00,2013-05-31 08:26:00,
2013-05-31 04:31:00,64.6,62.8,30.23,SSE,160,0.0,0.0,94,0.00,,---,0.00,VWS V14.00,2013-05-31 08:31:00,
2013-05-31 04:36:00,64.2,62.4,30.23,SSE,160,0.0,0.0,94,0.00,,---,0.00,VWS V14.00,2013-05-31 08:36:00,
2013-05-31 04:41:00,64.1,62.6,30.23,SSE,160,0.0,0.0,95,0.00,,---,0.00,VWS V14.00,2013-05-31 08:41:00,
2013-05-31 04:46:00,64.2,62.7,30.23,SSE,160,0.0,0.0,95,0.00,,---,0.00,VWS V14.00,2013-05-31 08:46:00,
2013-05-31 04:51:00,64.4,62.9,30.23,SSE,160,0.0,0.0,95,0.00,,---,0.00,VWS V14.00,2013-05-31 08:51:00,
2013-05-31 04:56:00,64.5,63.0,30.23,SSE,160,0.0,0.0,95,0.00,,---,0.00,VWS V14.00,2013-05-31 08:56:00,
2013-05-31 05:01:00,64.5,63.0,30.23,SSE,160,0.0,0.0,95,0.00,,---,0.00,VWS V14.00,2013-05-31 09:01:00,
2013-05-31 05:06:00,64.4,62.9,30.23,SSE,160,0.0,0.0,95,0.00,,---,0.00,VWS V14.00,2013-05-31 09:06:00,
2013-05-31 05:11:00,64.1,62.6,30.23,SSE,160,0.0,0.0,95,0.00,,---,0.00,VWS V14.00,2013-05-31 09:11:00,
2013-05-31 05:16:00,64.0,62.5,30.23,SSE,160,0.0,0.0,95,0.00,,---,0.00,VWS V14.00,2013-05-31 09:16:00,
2013-05-31 05:21:00,63.6,62.2,30.23,SSE,160,0.0,0.0,95,0.00,,---,0.00,VWS V14.00,2013-05-31 09:21:00,
2013-05-31 05:26:00,63.5,62.0,30.23,SSE,160,0.0,0.0,95,0.00,,---,0.00,VWS V14.00,2013-05-31 09:26:00,
2013-05-31 05:31:00,63.5,62.0,30.23,SSE,160,0.0,0.0,95,0.00,,---,0.00,VWS V14.00,2013-05-31 09:31:00,
2013-05-31 05:36:00,63.6,62.2,30.23,SSE,160,0.0,0.0,95,0.00,,---,0.00,VWS V14.00,2013-05-31 09:36:00,
2013-05-31 05:41:00,63.5,62.0,30.22,SSE,160,0.0,0.0,95,0.00,,---,0.00,VWS V14.00,2013-05-31 09:41:00,
2013-05-31 05:46:00,63.4,62.0,30.23,SSE,160,0.0,0.0,95,0.00,,---,0.00,VWS V14.00,2013-05-31 09:46:00,
2013-05-31 05:51:00,63.2,61.8,30.23,SSE,160,0.0,0.0,95,0.00,,---,0.00,VWS V14.00,2013-05-31 09:51:00,
2013-05-31 05:56:00,63.3,61.8,30.23,SSE,160,0.0,0.0,95,0.00,,---,0.00,VWS V14.00,2013-05-31 09:56:00,
2013-05-31 06:01:00,63.2,61.8,30.23,SSE,160,0.0,0.0,95,0.00,,---,0.00,VWS V14.00,2013-05-31 10:01:00,
2013-05-31 06:06:00,63.1,61.7,30.23,SSE,160,0.0,0.0,95,0.00,,---,0.00,VWS V14.00,2013-05-31 10:06:00,
2013-05-31 06:11:00,62.9,61.5,30.23,SSE,160,0.0,0.0,95,0.00,,---,0.00,VWS V14.00,2013-05-31 10:11:00,
2013-05-31 06:16:00,62.8,61.3,30.24,SSE,160,0.0,0.0,95,0.00,,---,0.00,VWS V14.00,2013-05-31 10:16:00,
2013-05-31 06:21:00,62.8,61.3,30.23,SSE,160,0.0,0.0,95,0.00,,---,0.00,VWS V14.00,2013-05-31 10:21:00,
2013-05-31 06:26:00,62.7,61.2,30.23,SSE,160,0.0,0.0,95,0.00,,---,0.00,VWS V14.00,2013-05-31 10:26:00,
2013-05-31 06:31:00,62.6,61.2,30.23,SSE,160,0.0,0.0,95,0.00,,---,0.00,VWS V14.00,2013-05-31 10:31:00,
2013-05-31 06:36:00,62.9,61.8,30.23,SSE,160,0.0,0.0,96,0.00,,---,0.00,VWS V14.00,2013-05-31 10:36:00,
2013-05-31 06:41:00,63.2,62.0,30.24,SSE,160,0.0,0.0,96,0.00,,---,0.00,VWS V14.00,2013-05-31 10:41:00,
2013-05-31 06:46:00,63.2,61.8,30.24,SSE,160,0.0,0.0,95,0.00,,---,0.00,VWS V14.00,2013-05-31 10:46:00,
2013-05-31 06:51:00,63.4,62.2,30.24,SSE,160,0.0,0.0,96,0.00,,---,0.00,VWS V14.00,2013-05-31 10:51:00,
2013-05-31 06:56:00,63.8,62.6,30.24,SSE,160,0.0,0.0,96,0.00,,---,0.00,VWS V14.00,2013-05-31 10:56:00,
2013-05-31 07:01:00,64.1,62.9,30.24,SSE,160,0.0,0.0,96,0.00,,---,0.00,VWS V14.00,2013-05-31 11:01:00,
2013-05-31 07:06:00,64.7,63.8,30.24,SSE,160,0.0,0.0,97,0.00,,---,0.00,VWS V14.00,2013-05-31 11:06:00,
2013-05-31 07:11:00,65.1,64.2,30.24,SSE,160,0.0,0.0,97,0.00,,---,0.00,VWS V14.00,2013-05-31 11:11:00,
2013-05-31 07:16:00,65.7,64.8,30.24,SSE,160,0.0,0.0,97,0.00,,---,0.00,VWS V14.00,2013-05-31 11:16:00,
2013-05-31 07:22:00,66.4,65.5,30.24,SSE,160,0.0,0.0,97,0.00,,---,0.00,VWS V14.00,2013-05-31 11:22:00,
2013-05-31 07:27:00,67.0,66.1,30.24,SSE,160,0.0,0.0,97,0.00,,---,0.00,VWS V14.00,2013-05-31 11:27:00,
2013-05-31 07:32:00,67.7,66.8,30.24,SSE,160,0.0,0.0,97,0.00,,---,0.00,VWS V14.00,2013-05-31 11:32:00,
2013-05-31 07:37:00,68.6,67.7,30.24,SSE,160,0.0,0.0,97,0.00,,---,0.00,VWS V14.00,2013-05-31 11:37:00,
2013-05-31 07:42:00,69.1,67.9,30.24,SE,128,0.0,3.0,96,0.00,,---,0.00,VWS V14.00,2013-05-31 11:42:00,
2013-05-31 07:47:00,69.9,69.0,30.25,SE,128,0.0,3.0,97,0.00,,---,0.00,VWS V14.00,2013-05-31 11:47:00,
2013-05-31 07:52:00,70.7,69.5,30.24,SE,128,0.0,3.0,96,0.00,,---,0.00,VWS V14.00,2013-05-31 11:52:00,
2013-05-31 07:57:00,71.4,70.2,30.25,SE,128,0.0,3.0,96,0.00,,---,0.00,VWS V14.00,2013-05-31 11:57:00,
2013-05-31 08:02:00,72.1,70.9,30.25,SE,128,0.0,0.0,96,0.00,,---,0.00,VWS V14.00,2013-05-31 12:02:00,
2013-05-31 08:07:00,72.6,71.1,30.25,SE,128,0.0,0.0,95,0.00,,---,0.00,VWS V14.00,2013-05-31 12:07:00,
2013-05-31 08:12:00,73.1,71.6,30.25,SE,128,0.0,0.0,95,0.00,,---,0.00,VWS V14.00,2013-05-31 12:12:00,
2013-05-31 08:17:00,73.6,72.1,30.25,SE,128,0.0,0.0,95,0.00,,---,0.00,VWS V14.00,2013-05-31 12:17:00,
2013-05-31 08:22:00,74.2,72.1,30.25,SE,128,0.0,0.0,93,0.00,,---,0.00,VWS V14.00,2013-05-31 12:22:00,
2013-05-31 08:27:00,74.9,72.7,30.25,SE,128,0.0,0.0,93,0.00,,---,0.00,VWS V14.00,2013-05-31 12:27:00,
2013-05-31 08:32:00,75.8,73.0,30.25,SE,128,0.0,0.0,91,0.00,,---,0.00,VWS V14.00,2013-05-31 12:32:00,
2013-05-31 08:37:00,76.7,73.6,30.25,SE,128,0.0,0.0,90,0.00,,---,0.00,VWS V14.00,2013-05-31 12:37:00,
2013-05-31 08:42:00,76.8,71.9,30.25,SE,131,0.0,0.0,85,0.00,,---,0.00,VWS V14.00,2013-05-31 12:42:00,
2013-05-31 08:47:00,77.3,72.4,30.25,SE,131,0.0,0.0,85,0.00,,---,0.00,VWS V14.00,2013-05-31 12:47:00,
2013-05-31 08:52:00,77.8,72.2,30.25,SE,131,0.0,0.0,83,0.00,,---,0.00,VWS V14.00,2013-05-31 12:52:00,
2013-05-31 08:57:00,78.0,72.1,30.25,SSE,164,0.0,1.0,82,0.00,,---,0.00,VWS V14.00,2013-05-31 12:57:00,
2013-05-31 09:02:00,78.3,72.7,30.25,SE,144,0.0,0.0,83,0.00,,---,0.00,VWS V14.00,2013-05-31 13:02:00,
2013-05-31 09:07:00,78.7,72.0,30.24,SE,144,0.0,0.0,80,0.00,,---,0.00,VWS V14.00,2013-05-31 13:07:00,
2013-05-31 09:12:00,78.5,71.8,30.24,South,187,0.0,1.0,80,0.00,,---,0.00,VWS V14.00,2013-05-31 13:12:00,
2013-05-31 09:17:00,78.8,72.1,30.24,East,88,0.0,1.0,80,0.00,,---,0.00,VWS V14.00,2013-05-31 13:17:00,
2013-05-31 09:22:00,79.5,72.0,30.24,East,88,0.0,1.0,78,0.00,,---,0.00,VWS V14.00,2013-05-31 13:22:00,
2013-05-31 09:27:00,79.8,71.9,30.24,ESE,104,0.0,2.0,77,0.00,,---,0.00,VWS V14.00,2013-05-31 13:27:00,
2013-05-31 09:32:00,79.3,70.7,30.25,ESE,123,0.0,3.0,75,0.00,,---,0.00,VWS V14.00,2013-05-31 13:32:00,
2013-05-31 09:37:00,78.4,70.6,30.25,ESE,123,0.0,3.0,77,0.00,,---,0.00,VWS V14.00,2013-05-31 13:37:00,
2013-05-31 09:42:00,78.4,71.3,30.25,ESE,123,0.0,3.0,79,0.00,,---,0.00,VWS V14.00,2013-05-31 13:42:00,
2013-05-31 09:47:00,79.2,72.5,30.25,SSE,152,4.0,7.0,80,0.00,,---,0.00,VWS V14.00,2013-05-31 13:47:00,
2013-05-31 09:52:00,79.3,73.3,30.25,ESE,104,8.0,8.0,82,0.00,,---,0.00,VWS V14.00,2013-05-31 13:52:00,
2013-05-31 09:57:00,80.1,73.4,30.24,ESE,120,6.0,9.0,80,0.00,,---,0.00,VWS V14.00,2013-05-31 13:57:00,
2013-05-31 10:02:00,79.7,72.6,30.24,SE,146,7.0,11.0,79,0.00,,---,0.00,VWS V14.00,2013-05-31 14:02:00,
2013-05-31 10:07:00,79.3,72.6,30.25,ESE,120,10.0,11.0,80,0.00,,---,0.00,VWS V14.00,2013-05-31 14:07:00,
2013-05-31 10:12:00,79.3,72.6,30.25,SE,125,6.0,11.0,80,0.00,,---,0.00,VWS V14.00,2013-05-31 14:12:00,
2013-05-31 10:17:00,79.3,73.0,30.24,SE,133,6.0,11.0,81,0.00,,---,0.00,VWS V14.00,2013-05-31 14:17:00,
2013-05-31 10:22:00,79.2,72.5,30.24,SSE,152,8.0,11.0,80,0.00,,---,0.00,VWS V14.00,2013-05-31 14:22:00,
2013-05-31 10:27:00,79.3,72.2,30.24,SE,143,10.0,12.0,79,0.00,,---,0.00,VWS V14.00,2013-05-31 14:27:00,
2013-05-31 10:32:00,78.6,71.6,30.24,SSE,162,5.0,9.0,79,0.00,,---,0.00,VWS V14.00,2013-05-31 14:32:00,
2013-05-31 10:37:00,78.6,72.3,30.24,ESE,112,4.0,10.0,81,0.00,,---,0.00,VWS V14.00,2013-05-31 14:37:00,
2013-05-31 10:42:00,78.9,71.8,30.24,SE,137,9.0,10.0,79,0.00,,---,0.00,VWS V14.00,2013-05-31 14:42:00,
2013-05-31 10:47:00,79.4,72.7,30.24,ESE,112,5.0,10.0,80,0.00,,---,0.00,VWS V14.00,2013-05-31 14:47:00,
2013-05-31 10:52:00,79.6,72.1,30.24,SE,139,8.0,13.0,78,0.00,,---,0.00,VWS V14.00,2013-05-31 14:52:00,
2013-05-31 10:57:00,79.5,72.4,30.24,East,100,5.0,13.0,79,0.00,,---,0.00,VWS V14.00,2013-05-31 14:57:00,
2013-05-31 11:02:00,80.8,71.3,30.24,East,91,3.0,8.0,73,0.00,,---,0.00,VWS V14.00,2013-05-31 15:02:00,
2013-05-31 11:07:00,80.9,72.6,30.24,ESE,104,5.0,9.0,76,0.00,,---,0.00,VWS V14.00,2013-05-31 15:07:00,
2013-05-31 11:12:00,81.2,72.1,30.24,ESE,123,6.0,11.0,74,0.00,,---,0.00,VWS V14.00,2013-05-31 15:12:00,
2013-05-31 11:17:00,81.4,73.1,30.24,SE,133,6.0,11.0,76,0.00,,---,0.00,VWS V14.00,2013-05-31 15:17:00,
2013-05-31 11:22:00,80.5,71.8,30.24,SSE,148,6.0,11.0,75,0.00,,---,0.00,VWS V14.00,2013-05-31 15:22:00,
2013-05-31 11:27:00,80.7,72.0,30.25,SSE,150,10.0,12.0,75,0.00,,---,0.00,VWS V14.00,2013-05-31 15:27:00,
2013-05-31 11:32:00,79.9,71.7,30.25,SE,131,4.0,11.0,76,0.00,,---,0.00,VWS V14.00,2013-05-31 15:32:00,
2013-05-31 11:37:00,80.4,71.8,30.25,SSE,158,11.0,13.0,75,0.00,,---,0.00,VWS V14.00,2013-05-31 15:37:00,
2013-05-31 11:42:00,79.4,71.6,30.25,ESE,112,8.0,14.0,77,0.00,,---,0.00,VWS V14.00,2013-05-31 15:42:00,
2013-05-31 11:47:00,80.1,72.2,30.25,ESE,118,10.0,14.0,77,0.00,,---,0.00,VWS V14.00,2013-05-31 15:47:00,
2013-05-31 11:52:00,80.1,72.6,30.24,SE,132,8.0,14.0,78,0.00,,---,0.00,VWS V14.00,2013-05-31 15:52:00,
2013-05-31 11:57:00,80.2,72.7,30.24,ESE,106,8.0,14.0,78,0.00,,---,0.00,VWS V14.00,2013-05-31 15:57:00,
2013-05-31 12:02:00,80.7,72.0,30.24,ESE,114,12.0,15.0,75,0.00,,---,0.00,VWS V14.00,2013-05-31 16:02:00,
2013-05-31 12:07:00,80.4,72.5,30.24,ESE,115,12.0,16.0,77,0.00,,---,0.00,VWS V14.00,2013-05-31 16:07:00,
2013-05-31 12:12:00,80.7,72.0,30.24,ESE,111,11.0,16.0,75,0.00,,---,0.00,VWS V14.00,2013-05-31 16:12:00,
2013-05-31 12:17:00,80.3,70.9,30.24,SSE,151,10.0,16.0,73,0.00,,---,0.00,VWS V14.00,2013-05-31 16:17:00,
2013-05-31 12:22:00,80.0,72.2,30.24,ESE,114,7.0,16.0,77,0.00,,---,0.00,VWS V14.00,2013-05-31 16:22:00,
2013-05-31 12:27:00,80.5,71.5,30.24,ESE,108,7.0,16.0,74,0.00,,---,0.00,VWS V14.00,2013-05-31 16:27:00,
2013-05-31 12:32:00,80.4,71.0,30.24,ESE,116,11.0,13.0,73,0.00,,---,0.00,VWS V14.00,2013-05-31 16:32:00,
2013-05-31 12:37:00,81.1,71.6,30.24,ESE,112,9.0,13.0,73,0.00,,---,0.00,VWS V14.00,2013-05-31 16:37:00,
2013-05-31 12:42:00,81.6,71.7,30.24,ESE,110,5.0,13.0,72,0.00,,---,0.00,VWS V14.00,2013-05-31 16:42:00,
2013-05-31 12:47:00,82.0,71.7,30.24,East,100,6.0,13.0,71,0.00,,---,0.00,VWS V14.00,2013-05-31 16:47:00,
2013-05-31 12:52:00,81.6,70.0,30.24,SSE,151,9.0,13.0,68,0.00,,---,0.00,VWS V14.00,2013-05-31 16:52:00,
2013-05-31 12:57:00,81.1,71.2,30.23,SSE,154,5.0,13.0,72,0.00,,---,0.00,VWS V14.00,2013-05-31 16:57:00,
2013-05-31 13:02:00,80.4,71.4,30.23,SE,129,6.0,13.0,74,0.00,,---,0.00,VWS V14.00,2013-05-31 17:02:00,
2013-05-31 13:07:00,81.0,70.7,30.23,ESE,114,4.0,13.0,71,0.00,,---,0.00,VWS V14.00,2013-05-31 17:07:00,
2013-05-31 13:12:00,81.2,70.1,30.23,SSE,150,7.0,15.0,69,0.00,,---,0.00,VWS V14.00,2013-05-31 17:12:00,
2013-05-31 13:17:00,80.6,70.3,30.23,SSE,147,4.0,15.0,71,0.00,,---,0.00,VWS V14.00,2013-05-31 17:17:00,
2013-05-31 13:22:00,80.4,69.3,30.23,SE,139,8.0,15.0,69,0.00,,---,0.00,VWS V14.00,2013-05-31 17:22:00,
2013-05-31 13:27:00,79.8,69.6,30.23,SSE,166,8.0,15.0,71,0.00,,---,0.00,VWS V14.00,2013-05-31 17:27:00,
2013-05-31 13:32:00,80.1,69.4,30.23,South,185,8.0,11.0,70,0.00,,---,0.00,VWS V14.00,2013-05-31 17:32:00,
2013-05-31 13:37:00,79.9,69.7,30.23,SSE,156,6.0,13.0,71,0.00,,---,0.00,VWS V14.00,2013-05-31 17:37:00,
2013-05-31 13:42:00,79.8,69.6,30.23,SSE,155,10.0,13.0,71,0.00,,---,0.00,VWS V14.00,2013-05-31 17:42:00,
2013-05-31 13:47:00,79.4,69.6,30.23,SE,131,10.0,14.0,72,0.00,,---,0.00,VWS V14.00,2013-05-31 17:47:00,
2013-05-31 13:52:00,79.1,70.1,30.23,SE,131,11.0,14.0,74,0.00,,---,0.00,VWS V14.00,2013-05-31 17:52:00,
2013-05-31 13:57:00,79.2,69.8,30.23,SSE,155,8.0,14.0,73,0.00,,---,0.00,VWS V14.00,2013-05-31 17:57:00,
2013-05-31 14:02:00,79.0,69.6,30.23,SSE,148,11.0,12.0,73,0.00,,---,0.00,VWS V14.00,2013-05-31 18:02:00,
2013-05-31 14:07:00,78.7,70.9,30.22,SE,144,8.0,12.0,77,0.00,,---,0.00,VWS V14.00,2013-05-31 18:07:00,
2013-05-31 14:12:00,78.8,69.4,30.22,SE,137,12.0,15.0,73,0.00,,---,0.00,VWS V14.00,2013-05-31 18:12:00,
2013-05-31 14:17:00,79.1,70.9,30.22,SE,138,10.0,15.0,76,0.00,,---,0.00,VWS V14.00,2013-05-31 18:17:00,
2013-05-31 14:22:00,79.7,70.7,30.22,ESE,120,10.0,15.0,74,0.00,,---,0.00,VWS V14.00,2013-05-31 18:22:00,
2013-05-31 14:27:00,79.7,71.5,30.21,SE,128,11.0,15.0,76,0.00,,---,0.00,VWS V14.00,2013-05-31 18:27:00,
2013-05-31 14:32:00,80.3,72.1,30.21,ESE,122,8.0,15.0,76,0.00,,---,0.00,VWS V14.00,2013-05-31 18:32:00,
2013-05-31 14:37:00,80.6,70.3,30.21,SE,142,10.0,15.0,71,0.00,,---,0.00,VWS V14.00,2013-05-31 18:37:00,
2013-05-31 14:42:00,79.7,69.9,30.21,SE,133,11.0,15.0,72,0.00,,---,0.00,VWS V14.00,2013-05-31 18:42:00,
2013-05-31 14:47:00,79.7,71.5,30.21,SE,127,12.0,15.0,76,0.00,,---,0.00,VWS V14.00,2013-05-31 18:47:00,
2013-05-31 14:52:00,79.3,71.1,30.21,SE,134,8.0,15.0,76,0.00,,---,0.00,VWS V14.00,2013-05-31 18:52:00,
2013-05-31 14:57:00,79.9,71.3,30.21,ESE,123,11.0,15.0,75,0.00,,---,0.00,VWS V14.00,2013-05-31 18:57:00,
2013-05-31 15:02:00,80.0,69.8,30.20,SSE,153,7.0,15.0,71,0.00,,---,0.00,VWS V14.00,2013-05-31 19:02:00,
2013-05-31 15:08:00,80.4,71.0,30.20,SE,141,9.0,15.0,73,0.00,,---,0.00,VWS V14.00,2013-05-31 19:08:00,
2013-05-31 15:13:00,79.7,70.7,30.19,ESE,104,10.0,16.0,74,0.00,,---,0.00,VWS V14.00,2013-05-31 19:13:00,
2013-05-31 15:18:00,79.9,70.9,30.19,SSE,157,10.0,16.0,74,0.00,,---,0.00,VWS V14.00,2013-05-31 19:18:00,
2013-05-31 15:23:00,79.6,69.4,30.19,SE,143,7.0,16.0,71,0.00,,---,0.00,VWS V14.00,2013-05-31 19:23:00,
2013-05-31 15:28:00,79.4,69.2,30.19,SE,131,7.0,10.0,71,0.00,,---,0.00,VWS V14.00,2013-05-31 19:28:00,
2013-05-31 15:33:00,80.5,71.5,30.19,SE,141,11.0,14.0,74,0.00,,---,0.00,VWS V14.00,2013-05-31 19:33:00,
2013-05-31 15:38:00,80.2,70.8,30.19,SE,127,12.0,14.0,73,0.00,,---,0.00,VWS V14.00,2013-05-31 19:38:00,
2013-05-31 15:43:00,80.1,70.7,30.19,SSE,149,7.0,14.0,73,0.00,,---,0.00,VWS V14.00,2013-05-31 19:43:00,
2013-05-31 15:48:00,79.8,70.8,30.19,SE,141,10.0,14.0,74,0.00,,---,0.00,VWS V14.00,2013-05-31 19:48:00,
2013-05-31 15:53:00,79.2,70.6,30.19,SE,124,10.0,15.0,75,0.00,,---,0.00,VWS V14.00,2013-05-31 19:53:00,
2013-05-31 15:58:00,80.1,71.5,30.19,ESE,117,7.0,8.0,75,0.00,,---,0.00,VWS V14.00,2013-05-31 19:58:00,
2013-05-31 16:03:00,80.1,71.5,30.19,SE,130,11.0,14.0,75,0.00,,---,0.00,VWS V14.00,2013-05-31 20:03:00,
2013-05-31 16:08:00,79.7,71.5,30.18,ESE,110,7.0,15.0,76,0.00,,---,0.00,VWS V14.00,2013-05-31 20:08:00,
2013-05-31 16:13:00,79.9,71.7,30.18,SE,145,8.0,15.0,76,0.00,,---,0.00,VWS V14.00,2013-05-31 20:13:00,
2013-05-31 16:18:00,79.8,71.2,30.18,SE,133,6.0,16.0,75,0.00,,---,0.00,VWS V14.00,2013-05-31 20:18:00,
2013-05-31 16:23:00,80.0,71.4,30.18,ESE,117,15.0,16.0,75,0.00,,---,0.00,VWS V14.00,2013-05-31 20:23:00,
2013-05-31 16:28:00,80.2,71.6,30.18,SSE,156,6.0,11.0,75,0.00,,---,0.00,VWS V14.00,2013-05-31 20:28:00,
2013-05-31 16:33:00,79.6,70.6,30.18,SE,144,11.0,13.0,74,0.00,,---,0.00,VWS V14.00,2013-05-31 20:33:00,
2013-05-31 16:38:00,78.8,71.0,30.18,SE,139,10.0,16.0,77,0.00,,---,0.00,VWS V14.00,2013-05-31 20:38:00,
2013-05-31 16:43:00,79.3,71.1,30.18,SE,141,12.0,16.0,76,0.00,,---,0.00,VWS V14.00,2013-05-31 20:43:00,
2013-05-31 16:48:00,79.5,71.7,30.17,SE,141,9.0,16.0,77,0.00,,---,0.00,VWS V14.00,2013-05-31 20:48:00,
2013-05-31 16:53:00,79.5,71.3,30.17,ESE,113,11.0,16.0,76,0.00,,---,0.00,VWS V14.00,2013-05-31 20:53:00,
2013-05-31 16:58:00,79.8,70.8,30.17,SSE,156,6.0,8.0,74,0.00,,---,0.00,VWS V14.00,2013-05-31 20:58:00,
2013-05-31 17:03:00,79.3,69.9,30.18,SSE,153,10.0,14.0,73,0.00,,---,0.00,VWS V14.00,2013-05-31 21:03:00,
2013-05-31 17:08:00,79.5,70.9,30.18,SSE,150,10.0,14.0,75,0.00,,---,0.00,VWS V14.00,2013-05-31 21:08:00,
2013-05-31 17:13:00,79.5,70.1,30.17,SSW,210,11.0,14.0,73,0.00,,---,0.00,VWS V14.00,2013-05-31 21:13:00,
2013-05-31 17:18:00,79.7,71.1,30.17,SE,141,9.0,14.0,75,0.00,,---,0.00,VWS V14.00,2013-05-31 21:18:00,
2013-05-31 17:23:00,79.4,70.8,30.17,SE,140,12.0,14.0,75,0.00,,---,0.00,VWS V14.00,2013-05-31 21:23:00,
2013-05-31 17:28:00,79.3,70.3,30.17,South,179,8.0,12.0,74,0.00,,---,0.00,VWS V14.00,2013-05-31 21:28:00,
2013-05-31 17:33:00,79.5,70.5,30.17,SSE,154,11.0,13.0,74,0.00,,---,0.00,VWS V14.00,2013-05-31 21:33:00,
2013-05-31 17:38:00,79.1,70.5,30.17,South,186,10.0,13.0,75,0.00,,---,0.00,VWS V14.00,2013-05-31 21:38:00,
2013-05-31 17:43:00,78.9,70.7,30.17,South,185,8.0,15.0,76,0.00,,---,0.00,VWS V14.00,2013-05-31 21:43:00,
2013-05-31 17:48:00,78.8,70.6,30.16,South,186,9.0,15.0,76,0.00,,---,0.00,VWS V14.00,2013-05-31 21:48:00,
2013-05-31 17:53:00,78.8,70.6,30.17,South,189,11.0,15.0,76,0.00,,---,0.00,VWS V14.00,2013-05-31 21:53:00,
2013-05-31 17:58:00,78.6,70.8,30.17,SSE,150,10.0,10.0,77,0.00,,---,0.00,VWS V14.00,2013-05-31 21:58:00,
2013-05-31 18:03:00,78.3,70.9,30.17,SSE,148,10.0,15.0,78,0.00,,---,0.00,VWS V14.00,2013-05-31 22:03:00,
2013-05-31 18:08:00,78.2,70.8,30.17,South,191,9.0,15.0,78,0.00,,---,0.00,VWS V14.00,2013-05-31 22:08:00,
2013-05-31 18:13:00,77.8,70.0,30.16,South,185,8.0,15.0,77,0.00,,---,0.00,VWS V14.00,2013-05-31 22:13:00,
2013-05-31 18:18:00,77.4,70.8,30.16,SSE,167,11.0,15.0,80,0.00,,---,0.00,VWS V14.00,2013-05-31 22:18:00,
2013-05-31 18:23:00,77.1,70.1,30.17,South,171,8.0,15.0,79,0.00,,---,0.00,VWS V14.00,2013-05-31 22:23:00,
2013-05-31 18:28:00,77.0,69.6,30.17,South,184,8.0,10.0,78,0.00,,---,0.00,VWS V14.00,2013-05-31 22:28:00,
2013-05-31 18:33:00,76.9,69.5,30.16,SSE,165,7.0,12.0,78,0.00,,---,0.00,VWS V14.00,2013-05-31 22:33:00,
2013-05-31 18:38:00,77.1,69.7,30.16,SSW,193,9.0,12.0,78,0.00,,---,0.00,VWS V14.00,2013-05-31 22:38:00,
2013-05-31 18:43:00,77.5,70.1,30.16,SSW,192,7.0,12.0,78,0.00,,---,0.00,VWS V14.00,2013-05-31 22:43:00,
2013-05-31 18:48:00,77.6,70.6,30.16,South,179,7.0,12.0,79,0.00,,---,0.00,VWS V14.00,2013-05-31 22:48:00,
2013-05-31 18:53:00,77.6,70.6,30.16,SSE,160,7.0,12.0,79,0.00,,---,0.00,VWS V14.00,2013-05-31 22:53:00,
2013-05-31 18:58:00,77.5,70.5,30.16,SSW,206,10.0,10.0,79,0.00,,---,0.00,VWS V14.00,2013-05-31 22:58:00,
2013-05-31 19:03:00,77.2,70.2,30.16,SSE,158,8.0,12.0,79,0.00,,---,0.00,VWS V14.00,2013-05-31 23:03:00,
2013-05-31 19:08:00,77.0,70.4,30.16,South,175,5.0,12.0,80,0.00,,---,0.00,VWS V14.00,2013-05-31 23:08:00,
2013-05-31 19:13:00,76.9,70.6,30.16,South,178,9.0,12.0,81,0.00,,---,0.00,VWS V14.00,2013-05-31 23:13:00,
2013-05-31 19:18:00,76.7,70.4,30.16,SSE,166,7.0,12.0,81,0.00,,---,0.00,VWS V14.00,2013-05-31 23:18:00,
2013-05-31 19:23:00,76.6,70.7,30.16,South,187,9.0,12.0,82,0.00,,---,0.00,VWS V14.00,2013-05-31 23:23:00,
2013-05-31 19:28:00,76.5,70.6,30.16,South,185,7.0,7.0,82,0.00,,---,0.00,VWS V14.00,2013-05-31 23:28:00,
2013-05-31 19:33:00,76.4,70.5,30.16,South,172,3.0,10.0,82,0.00,,---,0.00,VWS V14.00,2013-05-31 23:33:00,
2013-05-31 19:38:00,76.2,70.7,30.16,South,176,4.0,10.0,83,0.00,,---,0.00,VWS V14.00,2013-05-31 23:38:00,
2013-05-31 19:43:00,76.0,70.5,30.16,SSE,156,7.0,10.0,83,0.00,,---,0.00,VWS V14.00,2013-05-31 23:43:00,
2013-05-31 19:48:00,75.8,70.3,30.16,SSE,162,7.0,10.0,83,0.00,,---,0.00,VWS V14.00,2013-05-31 23:48:00,
2013-05-31 19:53:00,75.6,70.4,30.16,South,175,6.0,10.0,84,0.00,,---,0.00,VWS V14.00,2013-05-31 23:53:00,
2013-05-31 19:58:00,75.4,70.6,30.16,SSE,159,6.0,6.0,85,0.00,,---,0.00,VWS V14.00,2013-05-31 23:58:00,
2013-05-31 20:03:00,75.2,70.4,30.15,South,174,9.0,9.0,85,0.00,,---,0.00,VWS V14.00,2013-06-01 00:03:00,
2013-05-31 20:08:00,75.0,70.2,30.15,South,182,4.0,9.0,85,0.00,,---,0.00,VWS V14.00,2013-06-01 00:08:00,
2013-05-31 20:13:00,74.8,70.3,30.15,South,175,5.0,9.0,86,0.00,,---,0.00,VWS V14.00,2013-06-01 00:13:00,
2013-05-31 20:18:00,74.6,70.1,30.16,South,175,3.0,9.0,86,0.00,,---,0.00,VWS V14.00,2013-06-01 00:18:00,
2013-05-31 20:23:00,74.3,69.8,30.16,South,175,5.0,9.0,86,0.00,,---,0.00,VWS V14.00,2013-06-01 00:23:00,
2013-05-31 20:28:00,74.1,70.0,30.16,South,185,4.0,6.0,87,0.00,,---,0.00,VWS V14.00,2013-06-01 00:28:00,
2013-05-31 20:33:00,74.0,69.9,30.16,South,172,6.0,7.0,87,0.00,,---,0.00,VWS V14.00,2013-06-01 00:33:00,
2013-05-31 20:38:00,73.9,69.8,30.16,South,189,5.0,8.0,87,0.00,,---,0.00,VWS V14.00,2013-06-01 00:38:00,
2013-05-31 20:43:00,73.7,69.9,30.16,South,191,6.0,8.0,88,0.00,,---,0.00,VWS V14.00,2013-06-01 00:43:00,
2013-05-31 20:48:00,73.6,69.8,30.16,South,185,8.0,9.0,88,0.00,,---,0.00,VWS V14.00,2013-06-01 00:48:00,
2013-05-31 20:53:00,73.7,69.9,30.16,South,183,6.0,9.0,88,0.00,,---,0.00,VWS V14.00,2013-06-01 00:53:00,
2013-05-31 20:58:00,73.6,69.8,30.16,SSW,196,5.0,5.0,88,0.00,,---,0.00,VWS V14.00,2013-06-01 00:58:00,
2013-05-31 21:03:00,73.3,69.5,30.16,South,188,3.0,6.0,88,0.00,,---,0.00,VWS V14.00,2013-06-01 01:03:00,
2013-05-31 21:08:00,73.1,69.7,30.16,South,190,4.0,6.0,89,0.00,,---,0.00,VWS V14.00,2013-06-01 01:08:00,
2013-05-31 21:13:00,73.0,69.6,30.16,South,181,3.0,6.0,89,0.00,,---,0.00,VWS V14.00,2013-06-01 01:13:00,
2013-05-31 21:18:00,72.9,69.8,30.16,South,183,3.0,7.0,90,0.00,,---,0.00,VWS V14.00,2013-06-01 01:18:00,
2013-05-31 21:23:00,72.9,69.8,30.16,South,189,3.0,7.0,90,0.00,,---,0.00,VWS V14.00,2013-06-01 01:23:00,
2013-05-31 21:28:00,72.7,69.6,30.17,South,178,4.0,5.0,90,0.00,,---,0.00,VWS V14.00,2013-06-01 01:28:00,
2013-05-31 21:33:00,72.6,69.5,30.17,SSW,202,3.0,5.0,90,0.00,,---,0.00,VWS V14.00,2013-06-01 01:33:00,
2013-05-31 21:38:00,72.6,69.5,30.16,South,186,2.0,5.0,90,0.00,,---,0.00,VWS V14.00,2013-06-01 01:38:00,
2013-05-31 21:43:00,72.5,69.7,30.17,South,185,2.0,5.0,91,0.00,,---,0.00,VWS V14.00,2013-06-01 01:43:00,
2013-05-31 21:48:00,72.4,69.6,30.17,South,187,2.0,5.0,91,0.00,,---,0.00,VWS V14.00,2013-06-01 01:48:00,
2013-05-31 21:53:00,72.3,69.5,30.17,South,187,1.0,5.0,91,0.00,,---,0.00,VWS V14.00,2013-06-01 01:53:00,
2013-05-31 21:58:00,72.2,69.4,30.17,South,187,0.0,0.0,91,0.00,,---,0.00,VWS V14.00,2013-06-01 01:58:00,
2013-05-31 22:03:00,72.1,69.3,30.17,South,190,2.0,4.0,91,0.00,,---,0.00,VWS V14.00,2013-06-01 02:03:00,
2013-05-31 22:08:00,71.9,69.1,30.17,South,191,0.0,4.0,91,0.00,,---,0.00,VWS V14.00,2013-06-01 02:08:00,
2013-05-31 22:13:00,71.8,69.0,30.17,South,184,0.0,4.0,91,0.00,,---,0.00,VWS V14.00,2013-06-01 02:13:00,
2013-05-31 22:18:00,71.9,69.4,30.17,South,185,0.0,4.0,92,0.00,,---,0.00,VWS V14.00,2013-06-01 02:18:00,
2013-05-31 22:23:00,71.6,68.8,30.17,South,185,0.0,4.0,91,0.00,,---,0.00,VWS V14.00,2013-06-01 02:23:00,
2013-05-31 22:28:00,71.5,69.1,30.18,South,185,0.0,0.0,92,0.00,,---,0.00,VWS V14.00,2013-06-01 02:28:00,
2013-05-31 22:33:00,71.6,69.2,30.17,South,185,0.0,0.0,92,0.00,,---,0.00,VWS V14.00,2013-06-01 02:33:00,
2013-05-31 22:38:00,71.5,69.1,30.18,South,185,0.0,0.0,92,0.00,,---,0.00,VWS V14.00,2013-06-01 02:38:00,
2013-05-31 22:43:00,71.4,69.0,30.18,South,185,0.0,0.0,92,0.00,,---,0.00,VWS V14.00,2013-06-01 02:43:00,
2013-05-31 22:48:00,71.2,68.8,30.18,South,185,0.0,0.0,92,0.00,,---,0.00,VWS V14.00,2013-06-01 02:48:00,
2013-05-31 22:53:00,71.2,69.1,30.18,South,185,0.0,0.0,93,0.00,,---,0.00,VWS V14.00,2013-06-01 02:53:00,
2013-05-31 22:58:00,71.1,69.0,30.18,South,185,0.0,0.0,93,0.00,,---,0.00,VWS V14.00,2013-06-01 02:58:00,
2013-05-31 23:03:00,71.1,69.0,30.18,South,185,0.0,0.0,93,0.00,,---,0.00,VWS V14.00,2013-06-01 03:03:00,
2013-05-31 23:08:00,70.9,68.8,30.18,South,185,0.0,0.0,93,0.00,,---,0.00,VWS V14.00,2013-06-01 03:08:00,
2013-05-31 23:13:00,70.8,68.7,30.18,South,185,0.0,0.0,93,0.00,,---,0.00,VWS V14.00,2013-06-01 03:13:00,
2013-05-31 23:18:00,70.7,68.6,30.18,South,185,0.0,0.0,93,0.00,,---,0.00,VWS V14.00,2013-06-01 03:18:00,
2013-05-31 23:23:00,70.8,69.0,30.18,South,185,0.0,0.0,94,0.00,,---,0.00,VWS V14.00,2013-06-01 03:23:00,
2013-05-31 23:28:00,70.8,69.0,30.17,South,185,0.0,0.0,94,0.00,,---,0.00,VWS V14.00,2013-06-01 03:28:00,
2013-05-31 23:30:00,70.8,69.0,30.17,South,185,0.0,0.0,94,0.00,,---,0.00,VWS V14.00,2013-06-01 03:30:00,
2013-05-31 23:33:00,70.7,68.9,30.18,South,185,0.0,0.0,94,0.00,,---,0.00,VWS V14.00,2013-06-01 03:33:00,
2013-05-31 23:38:00,70.6,68.8,30.18,South,185,0.0,0.0,94,0.00,,---,0.00,VWS V14.00,2013-06-01 03:38:00,
2013-05-31 23:43:00,70.6,68.8,30.18,South,185,0.0,0.0,94,0.00,,---,0.00,VWS V14.00,2013-06-01 03:43:00,
2013-05-31 23:48:00,70.5,68.7,30.18,South,185,0.0,0.0,94,0.00,,---,0.00,VWS V14.00,2013-06-01 03:48:00,
2013-05-31 23:53:00,70.5,68.7,30.17,South,185,0.0,0.0,94,0.00,,---,0.00,VWS V14.00,2013-06-01 03:53:00,
2013-05-31 23:58:00,70.3,68.5,30.17,South,185,0.0,0.0,94,0.00,,---,0.00,VWS V14.00,2013-06-01 03:58:00,